Stansted, United Kingdom

9:39 AM BST on September 25, 2016 (GMT +0100)
Stansted

Weather History for EGSS - December, 2012

Change the Weather History Date:

Tuesday, December 11, 2012

  Actual Average Record
Temperature  
Mean Temperature 28 °F -  
Max Temperature 32 °F 44 °F 55 °F (2000)
Min Temperature 24 °F 35 °F 24 °F (2012)
Degree Days  
Heating Degree Days 37    
Moisture  
Dew Point 28 °F    
Average Humidity 96    
Maximum Humidity 100    
Minimum Humidity 93    
Precipitation  
Precipitation 0.00 in - - ()
Sea Level Pressure  
Sea Level Pressure 30.37 in    
Wind  
Wind Speed 6 mph ()    
Max Wind Speed 9 mph    
Max Gust Speed -    
Visibility 0.9 miles    
Events Fog    
Averages and records for this station are not official NWS values.
T = Trace of Precipitation, MM = Missing Value Source: Averaged Metar Reports

Daily Weather History Graph

Daily Weather History Graph

Search for Another Location

Airport or City:

Trip Planner

Search our weather history database for the weather conditions in past years. The results will help you decide how hot, cold, wet, or windy it might be!

Date:

Astronomy

Dec. 11, 2012 Rise Set
Actual Time 7:56 AM GMT 3:48 PM GMT
Civil Twilight 7:16 AM GMT 4:28 PM GMT
Nautical Twilight 6:32 AM GMT 5:11 PM GMT
Astronomical Twilight 5:51 AM GMT 5:52 PM GMT
Moon 5:25 AM GMT (12/11) 2:21 PM GMT (12/11)
Length of Visible Light 9h 12m
Length of Day
7h 51m
Waning Crescent, 5% of the Moon is Illuminated
Dec 11
Waning Crescent
Dec 13
New
Dec 20
First Quarter
Dec 28
Full
Jan 5
Last Quarter

Hourly Weather History & Observations

Time (GMT) Temp. Windchill Dew Point Humidity Pressure Visibility Wind Dir Wind Speed Gust Speed Precip Events Conditions
12:20 AM 30.2 °F 24.3 °F 28.4 °F 93% 30.33 in 6.2 mi NNW 5.8 mph - N/A   Unknown
12:50 AM 30.2 °F 24.3 °F 28.4 °F 93% 30.36 in - NNW 5.8 mph - N/A   Clear
1:20 AM 30.2 °F 23.4 °F 30.2 °F 100% 30.36 in 6.2 mi NNW 6.9 mph - N/A   Partly Cloudy
1:50 AM 32.0 °F 24.2 °F 30.2 °F 93% 30.36 in 5.6 mi NNW 9.2 mph - N/A   Partly Cloudy
2:20 AM 32.0 °F 24.8 °F 30.2 °F 93% 30.36 in 4.3 mi NNW 8.1 mph - N/A   Mostly Cloudy
2:50 AM 32.0 °F 24.2 °F 30.2 °F 93% 30.36 in 3.7 mi NNW 9.2 mph - N/A   Overcast
3:20 AM 32.0 °F 24.8 °F 30.2 °F 93% 30.36 in 1.7 mi NNW 8.1 mph - N/A   Haze
3:50 AM 30.2 °F 22.6 °F 30.2 °F 100% 30.36 in 1.7 mi NNW 8.1 mph - N/A   Overcast
4:20 AM 30.2 °F 22.6 °F 30.2 °F 100% 30.36 in 1.1 mi NNW 8.1 mph - N/A   Overcast
4:50 AM 30.2 °F 21.9 °F 30.2 °F 100% 30.36 in 0.5 mi NNW 9.2 mph - N/A Fog Light Freezing Fog
5:20 AM 30.2 °F 22.6 °F 30.2 °F 100% 30.39 in 1.0 mi NNW 8.1 mph - N/A   Overcast
5:50 AM 30.2 °F 22.6 °F 30.2 °F 100% 30.39 in 0.6 mi NNW 8.1 mph - N/A   Overcast
6:20 AM 30.2 °F 22.6 °F 30.2 °F 100% 30.39 in 0.6 mi NNW 8.1 mph - N/A Fog Light Freezing Fog
6:50 AM 30.2 °F 23.4 °F 30.2 °F 100% 30.39 in 0.4 mi North 6.9 mph - N/A Fog Light Freezing Fog
7:20 AM 30.2 °F 23.4 °F 28.4 °F 93% 30.39 in - North 6.9 mph - N/A Fog Light Freezing Fog
7:50 AM 30.2 °F 23.4 °F 28.4 °F 93% 30.39 in 0.2 mi NNW 6.9 mph - N/A Fog Light Freezing Fog
8:20 AM 30.2 °F 24.3 °F 28.4 °F 93% 30.39 in 0.2 mi NNW 5.8 mph - N/A Fog Light Freezing Fog
8:50 AM 30.2 °F 24.3 °F 28.4 °F 93% 30.42 in 0.2 mi North 5.8 mph - N/A Fog Light Freezing Fog
9:20 AM 30.2 °F 23.4 °F 28.4 °F 93% 30.42 in 0.2 mi NNW 6.9 mph - N/A Fog Light Freezing Fog
9:50 AM 30.2 °F 24.3 °F 28.4 °F 93% 30.42 in 0.2 mi North 5.8 mph - N/A Fog Light Freezing Fog
10:20 AM 30.2 °F 24.3 °F 30.2 °F 100% 30.42 in 0.2 mi NNW 5.8 mph - N/A Fog Light Freezing Fog
10:50 AM 30.2 °F 24.3 °F 30.2 °F 100% 30.42 in 0.2 mi NNW 5.8 mph - N/A Fog Light Freezing Fog
11:20 AM 30.2 °F 24.3 °F 30.2 °F 100% 30.42 in 0.2 mi NNW 5.8 mph - N/A Fog Light Freezing Fog
11:50 AM 30.2 °F 23.4 °F 30.2 °F 100% 30.42 in 0.2 mi NW 6.9 mph - N/A Fog Light Freezing Fog
12:20 PM 32.0 °F 26.4 °F 30.2 °F 93% 30.42 in 0.3 mi NW 5.8 mph - N/A Fog Light Freezing Fog
12:50 PM 30.2 °F 24.3 °F 30.2 °F 100% 30.39 in 0.2 mi NNW 5.8 mph - N/A Fog Light Freezing Fog
1:20 PM 30.2 °F 24.3 °F 30.2 °F 100% 30.39 in 0.2 mi NW 5.8 mph - N/A Fog Light Freezing Fog
1:50 PM 30.2 °F 24.3 °F 30.2 °F 100% 30.39 in 0.3 mi North 5.8 mph - N/A Fog Light Freezing Fog
2:20 PM 30.2 °F 24.3 °F 30.2 °F 100% 30.39 in 0.3 mi NW 5.8 mph - N/A Fog Light Freezing Fog
2:50 PM 30.2 °F 25.4 °F 28.4 °F 93% 30.39 in 0.2 mi NW 4.6 mph - N/A Fog Light Freezing Fog
3:20 PM 30.2 °F 26.7 °F 28.4 °F 93% 30.39 in 0.2 mi NW 3.5 mph - N/A Fog Light Freezing Fog
3:50 PM 28.4 °F 23.3 °F 28.4 °F 100% 30.39 in 0.2 mi WNW 4.6 mph - N/A Fog Light Freezing Fog
4:20 PM 28.4 °F 23.3 °F 28.4 °F 100% 30.39 in 0.2 mi NW 4.6 mph - N/A Fog Light Freezing Fog
4:50 PM 28.4 °F 22.2 °F 28.4 °F 100% 30.39 in 0.2 mi NW 5.8 mph - N/A Fog Light Freezing Fog
5:20 PM 28.4 °F 23.3 °F 26.6 °F 93% 30.36 in 0.2 mi NW 4.6 mph - N/A Fog Light Freezing Fog
5:50 PM 28.4 °F 24.6 °F 26.6 °F 93% 30.36 in 0.2 mi NNW 3.5 mph - N/A Fog Light Freezing Fog
6:20 PM 28.4 °F 24.6 °F 26.6 °F 93% 30.36 in 0.2 mi WNW 3.5 mph - N/A Fog Light Freezing Fog
6:50 PM 26.6 °F 22.6 °F 26.6 °F 100% 30.36 in 0.2 mi NW 3.5 mph - N/A Fog Light Freezing Fog
7:20 PM 26.6 °F 22.6 °F 24.8 °F 93% 30.36 in 0.1 mi Variable 3.5 mph - N/A Fog Light Freezing Fog
7:50 PM 26.6 °F 22.6 °F 24.8 °F 93% 30.36 in 0.1 mi Variable 3.5 mph - N/A Fog Light Freezing Fog
8:20 PM 26.6 °F 22.6 °F 24.8 °F 93% 30.36 in 0.1 mi West 3.5 mph - N/A Fog Light Freezing Fog
8:50 PM 24.8 °F 19.1 °F 24.8 °F 100% 30.36 in 0.1 mi West 4.6 mph - N/A Fog Light Freezing Fog
9:20 PM 24.8 °F 20.5 °F 24.8 °F 100% 30.33 in 0.1 mi Variable 3.5 mph - N/A Fog Light Freezing Fog
9:50 PM 24.8 °F 20.5 °F 24.8 °F 100% 30.33 in 0.1 mi Variable 3.5 mph - N/A Fog Light Freezing Fog
10:20 PM 24.8 °F 19.1 °F 23.0 °F 93% 30.33 in 0.1 mi West 4.6 mph - N/A Fog Light Freezing Fog
10:50 PM 24.8 °F 20.5 °F 23.0 °F 93% 30.33 in 0.2 mi West 3.5 mph - N/A Fog Light Freezing Fog
11:20 PM 24.8 °F 19.1 °F 23.0 °F 93% 30.33 in 0.2 mi West 4.6 mph - N/A Fog Light Freezing Fog
11:50 PM 24.8 °F 19.1 °F 23.0 °F 93% 30.30 in 0.2 mi West 4.6 mph - N/A Fog Light Freezing Fog